Weather History for Dubuque, IA

Change the Weather History Date:

Wednesday, March 26, 2014

  Actual Average Record
Temperature  
Mean Temperature 25 °F 40 °F  
Max Temperature 40 °F 49 °F 82 °F (1907)
Min Temperature 9 °F 30 °F 5 °F (1955)
Degree Days  
Heating Degree Days 40 25  
Month to date heating degree days 1042 798  
Since 1 July heating degree days 7418 6191  
Cooling Degree Days 0 0  
Month to date cooling degree days 0 0  
Year to date cooling degree days 0 0  
Moisture  
Dew Point 13 °F    
Average Humidity 59    
Maximum Humidity 83    
Minimum Humidity 34    
Precipitation  
Precipitation 0.00 in 0.09 in 1.54 in (1916)
Month to date precipitation 0.80 1.93  
Year to date precipitation 3.28 4.54  
Sea Level Pressure  
Sea Level Pressure 30.13 in    
Wind  
Wind Speed 16 mph (South)    
Max Wind Speed 30 mph    
Max Gust Speed 37 mph    
Visibility 10 miles    
Events      
T = Trace of Precipitation, MM = Missing Value Source: NWS Daily Summary

Daily Weather History Graph

Daily Weather History Graph

Search for Another Location

Airport:

Trip Planner

Search our weather history database for the weather conditions in past years. The results will help you decide how hot, cold, wet, or windy it might be!

Date:

Astronomy

Mar. 26, 2014 Rise Set
Actual Time 6:55 AM CDT 7:21 PM CDT
Civil Twilight 6:27 AM CDT 7:50 PM CDT
Nautical Twilight 5:54 AM CDT 8:23 PM CDT
Astronomical Twilight 5:20 AM CDT 8:57 PM CDT
Moon 4:09 AM CDT (3/26) 2:56 PM CDT (3/26)
Length of Visible Light 13h 22m
Length of Day
12h 26m
Waning Crescent, 21% of the Moon is Illuminated
Mar 26
Waning Crescent
Mar 30
New
Apr 7
First Quarter
Apr 15
Full
Apr 22
Last Quarter

Hourly Weather History & Observations

Time (CDT) Temp. Windchill Dew Point Humidity Pressure Visibility Wind Dir Wind Speed Gust Speed Precip Events Conditions
12:53 AM 14.0 °F - 7.0 °F 74% 30.27 in 10.0 mi Calm Calm - N/A   Clear
1:53 AM 10.9 °F 4.7 °F 7.0 °F 84% 30.28 in 10.0 mi SW 3.5 mph - N/A   Clear
2:53 AM 12.9 °F 6.9 °F 7.0 °F 77% 30.28 in 10.0 mi SSW 3.5 mph - N/A   Clear
3:53 AM 9.0 °F -0.9 °F 5.0 °F 84% 30.28 in 10.0 mi SSW 5.8 mph - N/A   Clear
4:53 AM 12.0 °F 5.9 °F 6.1 °F 77% 30.28 in 10.0 mi South 3.5 mph - N/A   Clear
5:53 AM 10.9 °F 1.4 °F 6.1 °F 81% 30.27 in 10.0 mi South 5.8 mph - N/A   Clear
6:53 AM 12.0 °F 1.5 °F 7.0 °F 80% 30.28 in 10.0 mi South 6.9 mph - N/A   Clear
7:53 AM 15.1 °F 5.2 °F 9.0 °F 77% 30.30 in 10.0 mi South 6.9 mph - N/A   Clear
8:53 AM 19.9 °F 5.7 °F 12.0 °F 71% 30.28 in 10.0 mi South 16.1 mph - N/A   Partly Cloudy
9:53 AM 24.1 °F 10.1 °F 12.0 °F 60% 30.26 in 10.0 mi South 18.4 mph - N/A   Partly Cloudy
10:53 AM 27.0 °F 14.7 °F 12.9 °F 56% 30.24 in 10.0 mi South 16.1 mph - N/A   Mostly Cloudy
11:53 AM 30.9 °F 19.1 °F 14.0 °F 50% 30.21 in 10.0 mi SSE 18.4 mph - N/A   Clear
12:53 PM 33.1 °F 21.9 °F 12.9 °F 43% 30.17 in 10.0 mi South 18.4 mph - N/A   Mostly Cloudy
1:53 PM 36.0 °F 25.3 °F 14.0 °F 41% 30.13 in 10.0 mi South 19.6 mph 31.1 mph N/A   Overcast
2:53 PM 39.0 °F 28.5 °F 15.1 °F 38% 30.07 in 10.0 mi SSE 23.0 mph 31.1 mph N/A   Partly Cloudy
3:53 PM 39.0 °F 28.3 °F 14.0 °F 36% 30.02 in 10.0 mi South 24.2 mph 36.8 mph N/A   Scattered Clouds
4:53 PM 37.9 °F 26.3 °F 16.0 °F 41% 29.98 in 10.0 mi SSE 26.5 mph 36.8 mph N/A   Mostly Cloudy
5:53 PM 37.9 °F 26.6 °F 17.1 °F 43% 29.97 in 10.0 mi SSE 25.3 mph 33.4 mph N/A   Overcast
6:53 PM 37.0 °F 25.6 °F 19.0 °F 48% 29.95 in 10.0 mi South 24.2 mph 31.1 mph N/A   Overcast
7:53 PM 37.0 °F 27.7 °F 19.0 °F 48% 29.94 in 10.0 mi South 16.1 mph - N/A   Overcast
8:53 PM 37.0 °F 26.4 °F 19.0 °F 48% 29.91 in 10.0 mi South 20.7 mph 29.9 mph N/A   Overcast
9:53 PM 37.0 °F 26.2 °F 19.9 °F 50% 29.89 in 10.0 mi South 21.9 mph - N/A   Overcast
10:53 PM 37.9 °F 27.3 °F 21.0 °F 51% 29.87 in 10.0 mi South 21.9 mph 28.8 mph N/A   Overcast
11:53 PM 39.0 °F 29.0 °F 21.0 °F 49% 29.85 in 10.0 mi South 20.7 mph 28.8 mph N/A   Overcast